Jacksonville, IL

11:59 PM CDT on October 17, 2019 (GMT -0500)
Jacksonville Municipal

Weather History for KIJX - September, 2019

Change the Weather History Date:

Thursday, September 19, 2019

  Actual Average (WUND) Record (WUND)
Temperature  
Mean Temperature 75 °F -  
Max Temperature 88 °F - - (-1)
Min Temperature 62 °F - - (-1)
Cooling Degree Days 10    
Growing Degree Days 25 (Base 50)    
Moisture  
Dew Point 66 °F    
Average Humidity 76    
Maximum Humidity 94    
Minimum Humidity 51    
Precipitation  
Precipitation 0.00 in - - ()
Sea Level Pressure  
Sea Level Pressure 30.04 in    
Wind  
Wind Speed 4 mph (SE)    
Max Wind Speed 7 mph    
Max Gust Speed -    
Visibility 10 miles    
Events      
Averages and records for this station are not official NWS values.
T = Trace of Precipitation, MM = Missing Value Source: NWS Daily Summary

Daily Weather History Graph

Daily Weather History Graph

Search for Another Location

Airport or City:

Astronomy

Sep. 19, 2019 Rise Set
Actual Time 6:45 AM CDT 7:03 PM CDT
Civil Twilight 6:18 AM CDT 7:30 PM CDT
Nautical Twilight 5:46 AM CDT 8:01 PM CDT
Astronomical Twilight 5:14 AM CDT 8:34 PM CDT
Moon 10:13 PM CDT (9/19) 11:48 AM CDT (9/19)
Length of Visible Light 13h 11m
Length of Day
12h 17m
Waning Gibbous, 74% of the Moon is Illuminated
Sep 19
Waning Gibbous
Sep 21
Last Quarter
Sep 28
New
Oct 5
First Quarter
Oct 13
Full

Hourly Weather History & Observations

Time (CDT) Temp. Heat Index Dew Point Humidity Pressure Visibility Wind Dir Wind Speed Gust Speed Precip Events Conditions
12:15 AM 67.1 °F - 63.5 °F 88% 30.05 in 10.0 mi SE 3.5 mph - N/A   Clear
12:35 AM 65.8 °F - 63.0 °F 90% 30.05 in 10.0 mi ESE 3.5 mph - N/A   Clear
12:55 AM 64.8 °F - 62.4 °F 92% 30.05 in 10.0 mi ESE 4.6 mph - N/A   Clear
1:15 AM 64.2 °F - 62.2 °F 93% 30.06 in 10.0 mi East 3.5 mph - N/A   Clear
1:35 AM 63.5 °F - 61.9 °F 94% 30.06 in 10.0 mi ESE 3.5 mph - N/A   Clear
1:55 AM 63.9 °F - 61.7 °F 93% 30.05 in 10.0 mi SE 3.5 mph - N/A   Clear
2:15 AM 63.5 °F - 61.2 °F 92% 30.05 in 10.0 mi Calm Calm - N/A   Clear
2:35 AM 64.2 °F - 61.3 °F 90% 30.05 in 10.0 mi ESE 3.5 mph - N/A   Clear
2:55 AM 63.1 °F - 61.0 °F 93% 30.05 in 10.0 mi ESE 4.6 mph - N/A   Clear
3:15 AM 62.6 °F - 60.6 °F 93% 30.05 in 10.0 mi SE 4.6 mph - N/A   Clear
3:35 AM 62.8 °F - 60.8 °F 93% 30.05 in 10.0 mi SE 3.5 mph - N/A   Clear
3:55 AM 63.9 °F - 61.0 °F 90% 30.04 in 10.0 mi SE 3.5 mph - N/A   Clear
4:15 AM 62.1 °F - 60.1 °F 93% 30.04 in 10.0 mi SE 3.5 mph - N/A   Clear
4:35 AM 63.5 °F - 60.8 °F 91% 30.04 in 10.0 mi SE 3.5 mph - N/A   Clear
4:55 AM 62.2 °F - 60.3 °F 93% 30.03 in 10.0 mi SE 3.5 mph - N/A   Clear
5:15 AM 63.5 °F - 60.8 °F 91% 30.03 in 10.0 mi SE 4.6 mph - N/A   Clear
5:35 AM 64.4 °F - 61.0 °F 89% 30.03 in 10.0 mi SE 4.6 mph - N/A   Clear
5:55 AM 64.0 °F - 61.0 °F 90% 30.03 in 10.0 mi SSE 4.6 mph - N/A   Clear
6:10 AM 64.0 °F - 61.0 °F 90% 30.03 in 10.0 mi SSE 4.6 mph - N/A   Clear
6:35 AM 65.3 °F - 61.2 °F 86% 30.04 in 10.0 mi Calm Calm - N/A   Clear
6:55 AM 62.4 °F - 60.3 °F 93% 30.05 in 10.0 mi Calm Calm - N/A   Clear
7:15 AM 63.1 °F - 60.6 °F 91% 30.06 in 10.0 mi Calm Calm - N/A   Clear
7:35 AM 63.9 °F - 61.9 °F 93% 30.06 in 10.0 mi ENE 3.5 mph - N/A   Clear
7:55 AM 66.4 °F - 63.0 °F 89% 30.07 in 10.0 mi Calm Calm - N/A   Scattered Clouds
8:15 AM 68.4 °F - 64.2 °F 87% 30.08 in 10.0 mi Calm Calm - N/A   Scattered Clouds
8:35 AM 70.3 °F - 64.4 °F 81% 30.08 in 10.0 mi Calm Calm - N/A   Scattered Clouds
8:55 AM 72.0 °F - 64.8 °F 78% 30.08 in 10.0 mi Calm Calm - N/A   Scattered Clouds
9:15 AM 75.0 °F - 64.0 °F 69% 30.08 in 10.0 mi SSE 5.8 mph - N/A   Clear
9:35 AM 76.5 °F - 63.9 °F 65% 30.08 in 10.0 mi South 5.8 mph - N/A   Clear
9:55 AM 78.1 °F - 64.4 °F 63% 30.08 in 10.0 mi SSE 3.5 mph - N/A   Clear
10:35 AM 80.6 °F 82.2 °F 64.2 °F 57% 30.08 in 10.0 mi SSE 3.5 mph - N/A   Clear
10:55 AM 82.0 °F 83.9 °F 65.3 °F 57% 30.08 in 10.0 mi SE 5.8 mph - N/A   Clear
11:15 AM 82.2 °F 84.4 °F 66.0 °F 58% 30.08 in 10.0 mi ESE 3.5 mph - N/A   Clear
11:35 AM 81.9 °F 84.1 °F 66.2 °F 59% 30.08 in 10.0 mi SSE 4.6 mph - N/A   Clear
11:55 AM 82.4 °F 84.6 °F 66.2 °F 58% 30.08 in 10.0 mi SSE 5.8 mph - N/A   Clear
12:15 PM 82.8 °F 85.3 °F 66.9 °F 59% 30.07 in 10.0 mi SSE 4.6 mph - N/A   Clear
12:35 PM 82.6 °F 85.1 °F 66.7 °F 59% 30.07 in 10.0 mi SSE 3.5 mph - N/A   Scattered Clouds
12:55 PM 83.8 °F 86.5 °F 67.1 °F 57% 30.06 in 10.0 mi South 4.6 mph - N/A   Scattered Clouds
1:15 PM 85.1 °F 88.2 °F 67.6 °F 56% 30.05 in 10.0 mi SE 3.5 mph - N/A   Clear
1:35 PM 85.8 °F 89.1 °F 68.2 °F 55% 30.05 in 10.0 mi SSE 4.6 mph - N/A   Clear
1:55 PM 86.5 °F 90.3 °F 68.7 °F 55% 30.04 in 10.0 mi SSE 6.9 mph - N/A   Clear
2:15 PM 86.7 °F 90.3 °F 68.2 °F 54% 30.04 in 10.0 mi South 4.6 mph - N/A   Clear
2:35 PM 86.4 °F 90.4 °F 68.9 °F 56% 30.03 in 10.0 mi South 5.8 mph - N/A   Clear
2:55 PM 86.4 °F 90.4 °F 68.9 °F 56% 30.03 in 10.0 mi South 4.6 mph - N/A   Clear
3:15 PM 86.9 °F 91.7 °F 69.8 °F 57% 30.02 in 10.0 mi South 4.6 mph - N/A   Clear
3:35 PM 87.3 °F 91.2 °F 68.5 °F 54% 30.01 in 10.0 mi SSE 5.8 mph - N/A   Clear
3:55 PM 88.0 °F 91.4 °F 68.0 °F 51% 30.01 in 10.0 mi SSE 4.6 mph - N/A   Scattered Clouds
4:15 PM 86.9 °F 91.0 °F 68.9 °F 55% 30.01 in 10.0 mi SSE 5.8 mph - N/A   Clear
4:35 PM 87.1 °F 91.3 °F 68.9 °F 55% 30.01 in 10.0 mi SE 6.9 mph - N/A   Clear
4:55 PM 86.9 °F 91.0 °F 68.9 °F 55% 30.01 in 10.0 mi SSE 4.6 mph - N/A   Clear
5:15 PM 86.2 °F 90.4 °F 69.3 °F 57% 30.01 in 10.0 mi SSE 3.5 mph - N/A   Clear
5:35 PM 84.7 °F 88.2 °F 68.5 °F 58% 30.00 in 10.0 mi SE 4.6 mph - N/A   Clear
5:55 PM 82.9 °F 86.3 °F 68.9 °F 62% 29.99 in 10.0 mi SSE 4.6 mph - N/A   Clear
6:15 PM 81.3 °F 84.5 °F 69.1 °F 66% 29.99 in 10.0 mi SE 4.6 mph - N/A   Clear
6:35 PM 80.1 °F 83.2 °F 70.0 °F 71% 30.00 in 10.0 mi ESE 3.5 mph - N/A   Clear
6:55 PM 79.3 °F - 70.2 °F 73% 30.01 in 10.0 mi SE 4.6 mph - N/A   Mostly Cloudy
7:15 PM 79.0 °F - 70.0 °F 74% 30.02 in 10.0 mi SE 3.5 mph - N/A   Overcast
7:35 PM 77.4 °F - 70.0 °F 78% 30.02 in 10.0 mi SE 5.8 mph - N/A   Mostly Cloudy
7:55 PM 75.6 °F - 69.8 °F 82% 30.02 in 10.0 mi East 4.6 mph - N/A   Scattered Clouds
8:15 PM 73.6 °F - 69.4 °F 87% 30.03 in 10.0 mi ESE 4.6 mph - N/A   Clear
8:35 PM 73.2 °F - 68.9 °F 86% 30.03 in 10.0 mi SE 4.6 mph - N/A   Clear
8:55 PM 75.4 °F - 68.9 °F 80% 30.03 in 10.0 mi SE 6.9 mph - N/A   Clear
9:15 PM 74.8 °F - 68.9 °F 82% 30.04 in 10.0 mi SE 3.5 mph - N/A   Clear
9:35 PM 73.2 °F - 68.9 °F 86% 30.05 in 10.0 mi SE 5.8 mph - N/A   Clear
9:55 PM 74.1 °F - 68.9 °F 84% 30.05 in 10.0 mi SSE 5.8 mph - N/A   Scattered Clouds
10:15 PM 74.3 °F - 68.5 °F 82% 30.05 in 10.0 mi SSE 5.8 mph - N/A   Scattered Clouds
10:35 PM 73.4 °F - 68.2 °F 84% 30.05 in 10.0 mi SE 6.9 mph - N/A   Clear
10:55 PM 74.1 °F - 68.0 °F 81% 30.05 in 10.0 mi SE 6.9 mph - N/A   Clear
11:15 PM 74.1 °F - 67.3 °F 79% 30.05 in 10.0 mi SE 6.9 mph - N/A   Clear
11:35 PM 73.6 °F - 67.1 °F 80% 30.05 in 10.0 mi SE 5.8 mph - N/A   Clear
11:55 PM 73.4 °F - 66.7 °F 80% 30.06 in 10.0 mi SSE 5.8 mph - N/A   Scattered Clouds